Ono, PA

2:15 AM EST on February 07, 2016 (GMT -0500)
Muir Army Air Field

Weather History for KMUI - July, 2013

Change the Weather History Date:

Wednesday, July 10, 2013

  Actual Average Record
Temperature  
Mean Temperature 76 °F -  
Max Temperature 87 °F 80 °F 93 °F (2007)
Min Temperature 66 °F 66 °F 59 °F (2011)
Cooling Degree Days 12    
Growing Degree Days 26 (Base 50)    
Moisture  
Dew Point 70 °F    
Average Humidity 95    
Maximum Humidity 100    
Minimum Humidity 56    
Precipitation  
Precipitation 0.09 in - - ()
Sea Level Pressure  
Sea Level Pressure 29.96 in    
Wind  
Wind Speed 0 mph (West)    
Max Wind Speed 7 mph    
Max Gust Speed -    
Visibility 4 miles    
Events Rain    
Averages and records for this station are not official NWS values.
T = Trace of Precipitation, MM = Missing Value Source: NWS Daily Summary

Daily Weather History Graph

Daily Weather History Graph

Search for Another Location

Airport or City:

Trip Planner

Search our weather history database for the weather conditions in past years. The results will help you decide how hot, cold, wet, or windy it might be!

Date:

Astronomy

Jul. 10, 2013 Rise Set
Actual Time 5:45 AM EDT 8:37 PM EDT
Civil Twilight 5:12 AM EDT 9:10 PM EDT
Nautical Twilight 4:31 AM EDT 9:51 PM EDT
Astronomical Twilight 3:44 AM EDT 10:38 PM EDT
Moon 8:04 AM EDT (7/10) 9:45 PM EDT (7/10)
Length of Visible Light 15h 57m
Length of Day
14h 52m
Waxing Crescent, 5% of the Moon is Illuminated
Jul 10
Waxing Crescent
Jul 15
First Quarter
Jul 22
Full
Jul 29
Last Quarter
Aug 6
New

Hourly Weather History & Observations

Time (EDT) Temp. Heat Index Dew Point Humidity Pressure Visibility Wind Dir Wind Speed Gust Speed Precip Events Conditions
12:18 AM 71.6 °F - 71.6 °F 100% 30.02 in 8.0 mi Calm Calm - N/A   Mostly Cloudy
12:20 AM 71.6 °F - 69.8 °F 94% 30.01 in 8.0 mi Calm Calm - N/A   Mostly Cloudy
12:24 AM 69.8 °F - 69.8 °F 100% 30.01 in 7.0 mi Calm Calm - N/A   Mostly Cloudy
12:34 AM 69.8 °F - 69.8 °F 100% 30.01 in 8.0 mi Calm Calm - N/A   Scattered Clouds
12:58 AM 70.2 °F - 70.0 °F 99% 30.00 in 7.0 mi Calm Calm - N/A   Clear
1:48 AM 68.0 °F - 68.0 °F 100% 29.99 in 2.5 mi Calm Calm - N/A   Clear
1:56 AM 68.0 °F - 68.0 °F 100% 29.99 in 3.0 mi Calm Calm - N/A   Clear
1:58 AM 68.5 °F - 68.5 °F 100% 29.99 in 3.0 mi Calm Calm - N/A   Clear
2:40 AM 68.0 °F - 68.0 °F 100% 29.99 in 2.5 mi Calm Calm - N/A   Clear
2:58 AM 68.0 °F - 68.0 °F 100% 29.98 in 2.0 mi Calm Calm - N/A   Clear
3:06 AM 68.0 °F - 68.0 °F 100% 29.98 in 3.0 mi Calm Calm - N/A   Clear
3:30 AM 68.0 °F - 68.0 °F 100% 29.97 in 2.5 mi Calm Calm - N/A   Clear
3:36 AM 68.0 °F - 68.0 °F 100% 29.97 in 2.0 mi Calm Calm - N/A   Clear
3:44 AM 68.0 °F - 68.0 °F 100% 29.97 in 3.0 mi Calm Calm - N/A   Clear
3:58 AM 67.3 °F - 67.3 °F 100% 29.98 in 4.0 mi Calm Calm - N/A   Clear
4:08 AM 68.0 °F - 68.0 °F 100% 29.98 in 2.5 mi Calm Calm - N/A   Clear
4:44 AM 68.0 °F - 68.0 °F 100% 29.97 in 3.0 mi Calm Calm - N/A   Clear
4:58 AM 67.5 °F - 67.5 °F 100% 29.97 in 3.0 mi Calm Calm - N/A   Scattered Clouds
5:02 AM 68.0 °F - 68.0 °F 100% 29.97 in 2.5 mi Calm Calm - N/A   Scattered Clouds
5:12 AM 68.0 °F - 68.0 °F 100% 29.97 in 3.0 mi Calm Calm - N/A   Partly Cloudy
5:22 AM 68.0 °F - 68.0 °F 100% 29.97 in 2.5 mi Calm Calm - N/A   Partly Cloudy
5:26 AM 68.0 °F - 68.0 °F 100% 29.97 in 1.8 mi Calm Calm - N/A   Clear
5:34 AM 66.2 °F - 66.2 °F 100% 29.97 in 1.5 mi Calm Calm - N/A   Partly Cloudy
5:42 AM 68.0 °F - 68.0 °F 100% 29.97 in 1.8 mi Calm Calm - N/A   Partly Cloudy
5:44 AM 68.0 °F - 68.0 °F 100% 29.97 in 2.5 mi Calm Calm - N/A   Partly Cloudy
5:46 AM 68.0 °F - 68.0 °F 100% 29.97 in 3.0 mi Calm Calm - N/A   Partly Cloudy
5:52 AM 68.0 °F - 68.0 °F 100% 29.96 in 2.0 mi Calm Calm - N/A   Partly Cloudy
5:54 AM 68.0 °F - 68.0 °F 100% 29.96 in 1.5 mi Calm Calm - N/A   Partly Cloudy
5:58 AM 67.1 °F - 67.1 °F 100% 29.97 in 1.5 mi Calm Calm - N/A   Partly Cloudy
6:02 AM 68.0 °F - 68.0 °F 100% 29.97 in 1.8 mi Calm Calm - N/A   Partly Cloudy
6:04 AM 68.0 °F - 68.0 °F 100% 29.97 in 2.5 mi Calm Calm - N/A   Partly Cloudy
6:06 AM 68.0 °F - 68.0 °F 100% 29.97 in 3.0 mi Calm Calm - N/A   Clear
6:20 AM 68.0 °F - 68.0 °F 100% 29.97 in 2.5 mi Calm Calm - N/A   Clear
6:28 AM 68.0 °F - 68.0 °F 100% 29.97 in 3.0 mi Calm Calm - N/A   Clear
6:29 AM 68.0 °F - 68.0 °F 100% 29.97 in 3.0 mi Calm Calm - N/A   Partly Cloudy
6:45 AM 69.8 °F - 69.8 °F 100% 29.97 in 3.0 mi Calm Calm - N/A   Mostly Cloudy
6:58 AM 69.6 °F - 69.6 °F 100% 29.97 in 4.0 mi Calm Calm - N/A   Mostly Cloudy
7:43 AM 71.6 °F - 71.6 °F 100% 29.98 in 4.0 mi Calm Calm - N/A Rain Light Rain
7:45 AM 71.6 °F - 71.6 °F 100% 29.98 in 4.0 mi Calm Calm - N/A   Mostly Cloudy
7:58 AM 71.4 °F - 71.4 °F 100% 29.98 in 3.0 mi Calm Calm - 0.00 in   Mostly Cloudy
7:59 AM 71.6 °F - 71.6 °F 100% 29.98 in 3.0 mi Calm Calm - N/A Rain Light Rain
8:01 AM 71.6 °F - 71.6 °F 100% 29.98 in 2.5 mi Calm Calm - N/A Rain Light Rain
8:09 AM 71.6 °F - 71.6 °F 100% 29.98 in 3.0 mi Calm Calm - N/A Rain Light Rain
8:21 AM 71.6 °F - 71.6 °F 100% 29.98 in 2.5 mi Calm Calm - N/A Rain Light Rain
8:42 AM 71.6 °F - 71.6 °F 100% 29.98 in 2.0 mi Calm Calm - N/A   Scattered Clouds
8:43 AM 71.6 °F - 71.6 °F 100% 29.98 in 2.0 mi Calm Calm - N/A Rain Light Rain
8:49 AM 73.4 °F - 71.6 °F 94% 29.98 in 3.0 mi Calm Calm - N/A Rain Light Rain
8:58 AM 73.0 °F - 72.7 °F 99% 29.98 in 3.0 mi Calm Calm - 0.00 in Rain Light Rain
9:00 AM 73.4 °F - 73.4 °F 100% 29.98 in 2.5 mi Calm Calm - N/A Rain Light Rain
9:08 AM 73.4 °F - 73.4 °F 100% 29.98 in 3.0 mi Calm Calm - N/A Rain Light Rain
9:10 AM 73.4 °F - 73.4 °F 100% 29.98 in 3.0 mi Calm Calm - N/A   Partly Cloudy
9:13 AM 73.4 °F - 73.4 °F 100% 29.98 in 3.0 mi Calm Calm - N/A   Light Drizzle
9:19 AM 73.4 °F - 73.4 °F 100% 29.98 in 2.5 mi Calm Calm - N/A Rain Light Rain
9:31 AM 73.4 °F - 73.4 °F 100% 29.98 in 1.5 mi Calm Calm - N/A Rain Light Rain
9:33 AM 73.4 °F - 73.4 °F 100% 29.98 in 1.0 mi Calm Calm - N/A Rain Heavy Rain
9:41 AM 73.4 °F - 73.4 °F 100% 29.98 in 1.2 mi Calm Calm - N/A Rain Light Rain
9:43 AM 73.4 °F - 73.4 °F 100% 29.98 in 2.5 mi Calm Calm - N/A Rain Light Rain
9:44 AM 73.4 °F - 73.4 °F 100% 29.98 in 2.5 mi Calm Calm - N/A   Scattered Clouds
9:46 AM 73.4 °F - 73.4 °F 100% 29.98 in 3.0 mi Calm Calm - N/A   Scattered Clouds
9:58 AM 73.9 °F - 73.6 °F 99% 29.98 in 3.0 mi Variable 4.6 mph - 0.09 in   Partly Cloudy
10:02 AM 73.4 °F - 73.4 °F 100% 29.98 in 4.0 mi Calm Calm - N/A   Partly Cloudy
10:18 AM 73.4 °F - 73.4 °F 100% 29.98 in 4.0 mi Calm Calm - N/A   Light Drizzle
10:29 AM 75.2 °F - 73.4 °F 94% 29.98 in 6.0 mi Calm Calm - N/A   Partly Cloudy
10:35 AM 75.2 °F - 73.4 °F 94% 29.98 in 6.0 mi Calm Calm - N/A   Drizzle
10:44 AM 75.2 °F - 75.2 °F 100% 29.98 in 6.0 mi Calm Calm - N/A   Clear
10:56 AM 75.2 °F - 75.2 °F 100% 29.97 in 7.0 mi Calm Calm - N/A   Partly Cloudy
11:56 AM 75.2 °F - 73.4 °F 94% 29.96 in 10.0 mi North 1.2 mph - N/A   Scattered Clouds
12:56 PM 80.6 °F 84.6 °F 71.6 °F 74% 29.94 in 10.0 mi Variable 6.9 mph - N/A   Mostly Cloudy
1:56 PM 82.4 °F 87.2 °F 71.6 °F 70% 29.91 in 10.0 mi WNW 4.6 mph - N/A   Mostly Cloudy
3:58 PM 86.0 °F 90.4 °F 69.6 °F 58% 29.87 in 10.0 mi WSW 6.9 mph - N/A   Clear
4:55 PM 86.0 °F 91.8 °F 71.6 °F 62% 29.88 in 7.0 mi WSW 6.9 mph - N/A   Scattered Clouds
4:58 PM - - - N/A% - - Calm Calm - N/A   Unknown
5:13 PM 86.0 °F 91.8 °F 71.6 °F 62% 29.85 in 10.0 mi WSW 4.6 mph - N/A   Mostly Cloudy
5:58 PM 87.1 °F 91.6 °F 69.6 °F 56% 29.85 in 10.0 mi Calm Calm - N/A   Scattered Clouds
6:58 PM 84.4 °F 89.4 °F 71.1 °F 64% 29.86 in 10.0 mi Calm Calm - N/A   Partly Cloudy
7:58 PM 82.0 °F 87.0 °F 72.1 °F 72% 29.87 in 10.0 mi Calm Calm - N/A   Scattered Clouds
8:58 PM 80.1 °F 82.9 °F 69.3 °F 69% 29.88 in 10.0 mi Calm Calm - N/A   Mostly Cloudy
9:58 PM 76.3 °F - 71.8 °F 86% 29.88 in 10.0 mi Calm Calm - N/A   Clear
10:58 PM 76.1 °F - 70.5 °F 83% 29.88 in 10.0 mi Calm Calm - N/A   Mostly Cloudy
11:58 PM 76.5 °F - 69.3 °F 78% 29.85 in 10.0 mi Calm Calm - N/A   Scattered Clouds